QPF
0.00 0.00 0.00 0.00 0.00 0.00 0.00 0.00 0.00 0.00 0.00 0.00 0.00 0.00 0.00 0.00 0.00 0.00 0.00 0.00 0.00 0.00 0.00 0.00 0.00 0.00 0.00 0.00 0.00 0.00 0.00 0.00 0.00 0.00 0.00 0.00 0.00 0.00 0.00 0.00 0.00 0.00 0.00 0.00 0.00
0.00 0.00 0.00 0.00 0.00 0.00 0.00 0.00 0.00 0.00 0.00 0.00 0.00 0.00 0.00 0.00 0.00 0.00 0.00 0.00 0.00 0.00 0.00 0.00 0.00 0.00 0.00 0.00 0.00 0.00 0.00 0.00 0.00 0.00 0.00 0.00 0.00 0.00 0.00 0.00 0.00 0.00 0.00 0.00 0.00
0.00 0.00 0.00 0.00 0.00 0.00 0.00 0.00 0.00 0.00 0.00 0.00 0.00 0.00 0.00 0.00 0.00 0.00 0.00 0.00 0.00 0.00 0.00 0.00 0.00 0.00 0.00 0.00 0.00 0.00 0.00 0.00 0.00 0.00 0.00 0.00 0.00 0.00 0.00 0.00 0.00 0.00 0.00 0.00 0.00
0.00 0.00 0.00 0.00 0.00 0.00 0.00 0.00 0.00 0.00 0.00 0.00 0.00 0.00 0.00 0.00 0.00 0.00 0.00 0.00 0.00 0.00 0.00 0.00 0.00 0.00 0.00 0.00 0.00 0.00 0.00 0.00 0.00 0.00 0.00 0.00 0.00 0.00 0.00 0.00 0.00 0.00 0.00 0.00 0.00
0.00 0.00 0.00 0.00 0.00 0.00 0.00 0.00 0.00 0.00 0.00 0.00 0.00 0.00 0.00 0.00 0.00 0.00 0.00 0.00 0.00 0.00 0.00 0.00 0.00 0.00 0.00 0.00 0.00 0.00 0.00 0.00 0.00 0.00 0.00 0.00 0.00 0.00 0.00 0.00 0.00 0.00 0.00 0.00 0.00
0.00 0.00 0.00 0.00 0.00 0.00 0.00 0.00 0.00 0.00 0.00 0.00 0.00 0.00 0.00 0.00 0.00 0.00 0.00 0.00 0.00 0.00 0.00 0.00 0.00 0.00 0.00 0.00 0.00 0.00 0.00 0.00 0.00 0.00 0.00 0.00 0.00 0.00 0.00 0.00 0.00 0.00 0.00 0.00 0.00
0.00 0.00 0.00 0.00 0.00 0.00 0.00 0.00 0.00 0.00 0.00 0.00 0.00 0.00 0.00 0.00 0.00 0.00 0.00 0.00 0.00 0.00 0.00 0.00 0.00 0.00 0.00 0.00 0.00 0.00 0.00 0.00 0.00 0.00 0.00 0.00 0.00 0.00 0.00 0.00 0.00 0.00 0.00 0.00 0.00
0.00 0.00 0.00 0.00 0.00 0.00 0.00 0.00 0.00 0.00 0.00 0.00 0.00 0.00 0.00 0.00 0.00 0.00 0.00 0.00 0.00 0.00 0.00 0.00 0.00 0.00 0.00 0.00 0.00 0.00 0.00 0.00 0.00 0.00 0.00 0.00 0.00 0.00 0.00 0.00 0.00 0.00 0.00 0.00 0.00
0.00 0.00 0.00 0.00 0.00 0.00 0.00 0.00 0.00 0.00 0.00 0.00 0.00 0.00 0.00 0.00 0.00 0.00 0.00 0.00 0.00 0.00 0.00 0.00 0.00 0.00 0.00 0.00 0.00 0.00 0.00 0.00 0.00 0.00 0.00 0.00 0.00 0.00 0.00 0.00 0.00 0.00 0.00 0.00 0.00
0.00 0.00 0.00 0.00 0.00 0.00 0.00 0.00 0.00 0.00 0.00 0.00 0.00 0.00 0.00 0.00 0.00 0.00 0.00 0.00 0.00 0.00 0.00 0.00 0.00 0.00 0.00 0.00 0.00 0.00 0.00 0.00 0.00 0.00 0.00 0.00 0.00 0.00 0.00 0.00 0.00 0.00 0.00 0.00 0.00
0.00 0.00 0.00 0.00 0.00 0.00 0.00 0.00 0.00 0.00 0.00 0.00 0.00 0.00 0.00 0.00 0.00 0.00 0.00 0.00 0.00 0.00 0.00 0.00 0.00 0.00 0.00 0.00 0.00 0.00 0.00 0.00 0.00 0.00 0.00 0.00 0.00 0.00 0.00 0.00 0.00 0.00 0.00 0.00 0.00
0.00 0.00 0.00 0.00 0.00 0.00 0.00 0.00 0.00 0.00 0.00 0.00 0.00 0.00 0.00 0.00 0.00 0.00 0.00 0.00 0.00 0.00 0.00 0.00 0.00 0.00 0.00 0.00 0.00 0.00 0.00 0.00 0.00 0.00 0.00 0.00 0.00 0.00 0.00 0.00 0.00 0.00 0.00 0.00 0.00
0.00 0.00 0.00 0.00 0.00 0.00 0.00 0.00 0.00 0.00 0.00 0.00 0.00 0.00 0.00 0.00 0.00 0.00 0.00 0.00 0.00 0.00 0.00 0.00 0.00 0.00 0.00 0.00 0.00 0.00 0.00 0.00 0.00 0.00 0.00 0.00 0.00 0.00 0.00 0.00 0.00 0.00 0.00 0.00 0.00
0.00 0.00 0.00 0.00 0.00 0.00 0.00 0.00 0.00 0.00 0.00 0.00 0.00 0.00 0.00 0.00 0.00 0.00 0.00 0.00 0.00 0.00 0.00 0.00 0.00 0.00 0.00 0.00 0.00 0.00 0.00 0.00 0.00 0.00 0.00 0.00 0.00 0.00 0.00 0.00 0.00 0.00 0.00 0.00 0.00
0.00 0.00 0.00 0.00 0.00 0.00 0.00 0.00 0.00 0.00 0.00 0.00 0.00 0.00 0.00 0.00 0.00 0.00 0.00 0.00 0.00 0.00 0.00 0.00 0.00 0.00 0.00 0.00 0.00 0.00 0.00 0.00 0.00 0.00 0.00 0.00 0.01 0.00 0.00 0.00 0.00 0.00 0.00 0.00 0.00
0.00 0.00 0.00 0.00 0.00 0.00 0.00 0.00 0.00 0.00 0.00 0.00 0.00 0.00 0.00 0.00 0.00 0.00 0.00 0.00 0.00 0.00 0.00 0.00 0.00 0.00 0.00 0.00 0.00 0.00 0.00 0.00 0.00 0.00 0.01 0.00 0.00 0.00 0.00 0.00 0.00 0.00 0.00 0.00 0.00
0.00 0.00 0.00 0.00 0.00 0.00 0.00 0.00 0.00 0.00 0.00 0.00 0.00 0.00 0.00 0.00 0.00 0.00 0.00 0.00 0.00 0.00 0.00 0.00 0.00 0.00 0.00 0.00 0.00 0.00 0.00 0.00 0.00 0.00 0.00 0.00 0.00 0.00 0.00 0.00 0.00 0.00 0.00 0.00 0.00
0.01 0.01 0.00 0.00 0.00 0.00 0.00 0.00 0.00 0.00 0.00 0.00 0.00 0.00 0.00 0.00 0.00 0.00 0.00 0.00 0.00 0.00 0.00 0.00 0.00 0.00 0.00 0.00 0.00 0.00 0.00 0.00 0.00 0.00 0.00 0.00 0.00 0.00 0.00 0.00 0.00 0.00 0.00 0.00 0.00
0.01 0.01 0.01 0.00 0.00 0.00 0.00 0.00 0.00 0.00 0.00 0.00 0.00 0.00 0.00 0.00 0.00 0.00 0.00 0.00 0.00 0.00 0.00 0.00 0.00 0.00 0.00 0.00 0.00 0.00 0.00 0.00 0.02 0.00 0.01 0.00 0.00 0.00 0.00 0.00 0.00 0.00 0.00 0.00 0.00
0.01 0.01 0.01 0.00 0.00 0.00 0.00 0.00 0.00 0.00 0.00 0.00 0.00 0.00 0.00 0.00 0.00 0.00 0.00 0.00 0.00 0.00 0.00 0.00 0.00 0.00 0.00 0.00 0.00 0.00 0.00 0.00 0.02 0.02 0.01 0.01 0.00 0.00 0.00 0.00 0.00 0.00 0.00 0.00 0.00
0.00 0.00 0.00 0.00 0.00 0.00 0.00 0.00 0.00 0.00 0.00 0.00 0.00 0.00 0.00 0.00 0.00 0.00 0.00 0.00 0.00 0.00 0.00 0.00 0.00 0.00 0.00 0.00 0.00 0.00 0.00 0.00 0.00 0.00 0.00 0.00 0.00 0.00 0.00 0.00 0.00 0.00 0.00 0.00 0.00
0.00 0.00 0.00 0.00 0.00 0.00 0.00 0.00 0.00 0.00 0.00 0.00 0.00 0.00 0.00 0.00 0.00 0.00 0.00 0.00 0.00 0.00 0.00 0.00 0.00 0.00 0.00 0.00 0.00 0.00 0.00 0.00 0.00 0.00 0.00 0.00 0.00 0.00 0.00 0.00 0.00 0.00 0.00 0.00 0.00
0.00 0.00 0.00 0.00 0.00 0.00 0.00 0.00 0.00 0.00 0.00 0.00 0.00 0.00 0.00 0.00 0.00 0.00 0.00 0.00 0.00 0.00 0.00 0.00 0.00 0.00 0.00 0.00 0.00 0.00 0.00 0.00 0.00 0.00 0.00 0.01 0.00 0.00 0.00 0.00 0.00 0.00 0.00 0.00 0.00
0.00 0.00 0.00 0.00 0.00 0.00 0.00 0.00 0.00 0.00 0.00 0.00 0.00 0.00 0.00 0.00 0.00 0.00 0.00 0.00 0.00 0.00 0.00 0.00 0.00 0.00 0.00 0.00 0.00 0.00 0.00 0.00 0.00 0.00 0.00 0.00 0.00 0.00 0.00 0.00 0.00 0.00 0.00 0.00 0.00
0.00 0.00 0.00 0.00 0.00 0.00 0.00 0.00 0.00 0.00 0.00 0.00 0.00 0.00 0.00 0.00 0.00 0.00 0.00 0.00 0.00 0.00 0.00 0.00 0.00 0.00 0.00 0.00 0.00 0.00 0.00 0.00 0.00 0.00 0.00 0.00 0.00 0.00 0.00 0.00 0.00 0.00 0.00 0.00 0.00
0.00 0.00 0.00 0.00 0.00 0.00 0.00 0.00 0.00 0.00 0.00 0.00 0.00 0.00 0.00 0.00 0.00 0.00 0.00 0.00 0.00 0.00 0.00 0.00 0.00 0.00 0.00 0.00 0.00 0.00 0.00 0.00 0.00 0.00 0.00 0.00 0.00 0.00 0.00 0.00 0.00 0.00 0.00 0.00 0.00
0.00 0.00 0.00 0.00 0.00 0.00 0.00 0.00 0.00 0.00 0.00 0.00 0.00 0.00 0.00 0.00 0.00 0.00 0.00 0.00 0.00 0.00 0.00 0.00 0.00 0.00 0.00 0.00 0.00 0.00 0.00 0.00 0.00 0.00 0.00 0.00 0.00 0.00 0.00 0.00 0.00 0.00 0.00 0.00 0.00
MSLP
1015.35 1015.62 1015.96 1016.15 1016.28 1016.51 1016.68 1016.73 1016.74 1016.80 1016.76 1016.58 1016.36 1016.07 1015.59 1015.08 1014.30 1013.88 1013.23 1012.25 1012.16 1012.06 1012.00 1011.86 1011.73 1011.91 1011.79 1012.06 1012.30 1012.53 1012.54 1011.94 1011.42 1011.08 1009.78 1009.55 1009.15 1008.99 1009.03 1008.82 1008.76 1008.52 1008.74 1009.02 1009.57
1014.80 1015.18 1015.56 1015.83 1016.02 1016.00 1016.41 1016.51 1016.65 1016.64 1016.57 1016.49 1016.25 1015.99 1015.39 1014.94 1014.48 1013.34 1012.28 1012.19 1012.08 1011.90 1012.18 1012.27 1012.16 1012.11 1011.95 1012.09 1012.33 1012.29 1012.24 1011.38 1010.93 1010.38 1009.77 1009.65 1009.58 1009.28 1008.92 1008.47 1008.05 1008.30 1008.81 1009.27 1009.66
1014.15 1014.44 1015.05 1015.46 1015.66 1015.88 1015.93 1016.07 1016.32 1016.44 1016.39 1016.27 1016.16 1015.77 1015.30 1014.63 1014.11 1012.71 1012.07 1012.13 1012.18 1012.11 1012.29 1012.47 1012.37 1012.32 1012.21 1012.15 1012.11 1012.25 1011.70 1011.20 1010.76 1010.46 1010.15 1009.94 1009.60 1009.17 1008.55 1007.58 1007.04 1007.81 1008.02 1008.94 1009.66
1013.57 1013.90 1014.48 1014.93 1015.29 1015.55 1015.72 1015.81 1015.87 1016.08 1016.21 1016.21 1016.00 1015.65 1015.28 1014.80 1013.86 1012.47 1012.26 1012.21 1012.14 1012.17 1012.23 1012.30 1012.40 1012.56 1012.43 1012.25 1012.03 1012.18 1011.56 1011.25 1010.76 1010.43 1010.25 1009.85 1009.43 1008.84 1008.65 1006.79 1006.62 1007.16 1007.53 1008.24 1008.60
1012.96 1013.36 1013.84 1014.47 1014.76 1015.03 1015.30 1015.45 1015.71 1015.93 1016.06 1016.20 1016.14 1015.70 1015.36 1014.98 1013.00 1012.08 1012.29 1012.12 1011.97 1012.02 1012.22 1012.23 1012.47 1012.69 1012.48 1012.51 1012.38 1011.98 1011.37 1011.42 1011.21 1010.89 1010.36 1009.99 1009.22 1008.65 1007.33 1006.02 1005.71 1006.40 1006.79 1006.90 1007.22
1012.28 1012.96 1013.35 1013.76 1014.25 1014.62 1014.93 1015.40 1015.67 1015.81 1015.91 1016.00 1016.09 1015.99 1015.72 1014.52 1011.89 1012.14 1012.25 1012.31 1012.10 1012.08 1012.23 1012.19 1012.49 1012.59 1012.78 1012.85 1012.60 1012.04 1012.01 1011.66 1011.17 1010.60 1010.25 1009.38 1008.27 1008.22 1005.82 1005.29 1005.27 1005.71 1005.72 1005.94 1006.20
1011.48 1012.18 1012.88 1013.14 1013.87 1014.36 1014.87 1015.20 1015.70 1015.59 1015.83 1015.97 1016.07 1016.02 1015.91 1013.38 1011.98 1012.22 1012.27 1012.35 1012.42 1012.40 1012.54 1012.41 1012.50 1012.70 1013.04 1012.82 1012.62 1012.44 1011.96 1011.60 1010.86 1009.98 1009.51 1008.86 1007.56 1006.25 1004.84 1004.96 1004.87 1005.19 1005.24 1005.25 1005.28
1010.60 1011.39 1012.21 1012.57 1013.30 1014.02 1014.77 1015.23 1015.52 1015.65 1015.84 1015.85 1016.07 1016.16 1015.02 1012.55 1012.37 1011.86 1011.83 1012.29 1012.11 1012.56 1012.63 1012.66 1012.71 1012.99 1013.01 1013.13 1012.71 1012.74 1012.28 1011.58 1010.68 1010.22 1009.17 1008.89 1005.02 1005.51 1004.86 1005.08 1004.93 1004.70 1004.82 1004.86 1004.87
1009.66 1010.59 1011.43 1011.98 1012.93 1013.64 1014.49 1015.23 1015.47 1015.49 1015.49 1016.16 1016.06 1015.95 1014.12 1012.34 1012.30 1011.35 1011.83 1011.95 1012.09 1012.30 1012.51 1012.58 1013.10 1013.12 1013.30 1013.20 1013.12 1012.83 1011.89 1011.87 1011.30 1010.47 1009.65 1009.02 1005.33 1005.60 1005.15 1005.10 1004.85 1004.54 1004.54 1004.46 1004.36
1008.96 1009.75 1010.64 1011.43 1012.39 1013.38 1014.13 1014.96 1015.18 1015.67 1015.75 1015.88 1015.91 1016.04 1013.64 1012.17 1011.23 1011.35 1011.72 1011.81 1011.88 1012.21 1012.69 1012.89 1013.13 1013.28 1013.42 1013.29 1011.97 1011.56 1011.98 1011.75 1011.53 1010.75 1010.08 1008.97 1005.36 1005.53 1005.31 1005.05 1004.56 1004.27 1003.99 1003.66 1003.44
1008.04 1009.00 1009.87 1010.73 1011.69 1012.63 1013.56 1015.10 1015.57 1015.91 1015.20 1013.77 1013.86 1013.50 1012.52 1011.75 1011.23 1011.20 1011.42 1011.58 1011.76 1012.04 1012.26 1012.74 1012.87 1012.54 1012.28 1012.08 1011.48 1011.70 1011.72 1011.66 1011.59 1010.99 1010.15 1008.60 1005.73 1004.11 1004.93 1004.55 1003.71 1003.43 1003.13 1002.80 1002.68
1006.70 1007.92 1008.78 1009.96 1010.87 1011.82 1012.49 1012.90 1012.82 1012.59 1013.39 1013.02 1013.07 1013.10 1012.56 1012.04 1011.86 1011.36 1011.21 1011.38 1011.57 1011.74 1012.01 1012.56 1011.81 1011.77 1011.91 1012.20 1012.23 1012.04 1011.73 1011.60 1011.03 1010.69 1010.35 1008.77 1004.90 1002.86 1004.22 1003.17 1002.67 1002.35 1002.44 1002.18 1001.79
1005.45 1006.73 1007.57 1009.02 1010.36 1011.61 1011.57 1011.95 1011.90 1012.07 1012.77 1012.32 1011.99 1012.03 1011.91 1012.09 1011.63 1010.95 1010.88 1011.10 1011.31 1011.51 1011.48 1011.19 1010.90 1011.20 1011.67 1011.95 1012.04 1011.81 1011.82 1011.52 1011.21 1010.87 1010.21 1008.93 1004.77 1002.32 1002.29 1001.83 1002.43 1002.47 1002.20 1002.07 1001.97
1004.36 1005.62 1006.85 1008.43 1010.74 1010.50 1011.00 1011.28 1011.54 1012.02 1012.81 1011.67 1011.43 1010.71 1011.25 1011.27 1011.05 1010.74 1010.63 1010.89 1011.39 1011.06 1011.59 1011.21 1010.88 1010.82 1011.23 1011.32 1011.56 1010.98 1010.99 1010.87 1011.01 1011.11 1009.78 1009.55 1006.33 1001.64 1001.60 1000.01 1002.21 1002.00 1002.14 1002.32 1001.92
1002.93 1004.47 1006.14 1006.17 1007.71 1008.67 1009.09 1010.49 1011.41 1012.05 1012.81 1010.48 1010.45 1010.33 1010.26 1010.90 1010.37 1010.60 1010.57 1010.80 1010.91 1010.95 1011.14 1010.68 1010.69 1010.72 1010.81 1010.58 1010.75 1010.70 1010.77 1010.78 1010.73 1010.87 1010.54 1006.59 1008.73 1003.47 1000.48 1000.45 1001.63 1002.67 1002.80 1003.21 1003.54
1001.61 1003.16 1005.08 1006.85 1007.20 1007.44 1008.29 1009.81 1010.95 1012.99 1011.16 1009.84 1009.73 1009.91 1010.37 1010.36 1010.13 1010.43 1010.54 1010.73 1010.99 1011.21 1011.14 1011.01 1011.01 1010.94 1010.45 1010.38 1010.45 1010.93 1011.07 1011.02 1010.84 1010.93 1009.79 1006.59 1008.53 1005.57 1002.67 1002.46 1002.57 1003.72 1004.88 1005.01 1004.49
1000.45 1002.13 1004.37 1005.38 1006.01 1006.87 1007.56 1009.43 1012.07 1011.79 1009.78 1009.38 1009.28 1009.49 1009.76 1010.28 1010.46 1010.37 1010.77 1011.32 1011.66 1012.01 1011.78 1011.41 1011.02 1010.72 1010.73 1010.76 1010.91 1011.25 1011.68 1011.17 1010.61 1010.31 1008.40 1007.26 1006.83 1004.86 1004.42 1004.71 1006.11 1005.95 1005.82 1005.65 1005.24
999.67 1002.32 1004.65 1005.31 1005.66 1006.42 1006.89 1009.85 1010.65 1009.28 1008.90 1008.78 1009.19 1009.69 1009.77 1010.19 1010.87 1010.87 1011.12 1012.16 1012.46 1012.35 1012.35 1012.04 1011.82 1011.42 1011.67 1011.56 1011.48 1011.64 1011.75 1012.04 1011.04 1009.72 1008.46 1008.29 1006.15 1004.83 1006.25 1006.72 1007.05 1007.25 1006.65 1005.89 1005.24
999.85 1002.74 1004.32 1005.84 1006.06 1006.11 1007.01 1009.33 1008.64 1008.74 1008.07 1008.22 1009.41 1009.81 1010.41 1010.54 1010.45 1011.26 1011.90 1012.56 1013.11 1013.27 1013.11 1013.41 1012.85 1012.51 1012.34 1012.04 1012.03 1012.33 1012.39 1013.11 1012.60 1011.28 1010.15 1008.14 1006.60 1006.27 1007.41 1007.86 1007.46 1006.90 1006.80 1006.01 1005.09
1000.09 1002.75 1004.80 1005.42 1005.89 1006.46 1007.83 1008.32 1008.81 1008.77 1008.31 1008.56 1009.00 1010.11 1010.48 1010.86 1010.82 1011.36 1012.27 1013.28 1013.70 1014.02 1013.85 1014.60 1013.98 1013.54 1013.09 1012.44 1012.87 1012.68 1013.40 1013.55 1013.56 1012.39 1010.41 1009.15 1008.71 1008.12 1008.26 1008.38 1008.12 1007.72 1006.90 1006.33 1005.93
1001.01 1003.62 1004.96 1005.45 1006.54 1007.21 1007.67 1008.66 1009.16 1009.14 1008.90 1009.66 1010.46 1010.94 1010.94 1011.08 1011.21 1011.85 1012.54 1013.68 1013.93 1014.53 1014.56 1014.63 1014.72 1013.93 1013.43 1013.12 1013.13 1013.55 1013.79 1014.73 1015.17 1014.89 1013.57 1011.93 1010.43 1009.27 1009.37 1009.22 1008.42 1007.95 1006.80 1006.11 1005.94
1001.46 1003.65 1005.07 1005.04 1006.70 1007.11 1007.65 1008.26 1009.01 1009.85 1009.89 1010.40 1011.08 1011.70 1012.10 1011.88 1012.35 1012.63 1013.00 1013.35 1014.17 1014.45 1015.05 1015.31 1015.45 1014.91 1014.08 1014.06 1013.74 1013.98 1014.87 1015.45 1015.79 1015.66 1015.39 1014.44 1011.86 1010.44 1009.45 1008.47 1008.17 1007.58 1006.46 1005.99 1005.74
1002.06 1004.09 1005.01 1004.94 1006.06 1006.89 1007.97 1008.60 1009.07 1009.66 1010.15 1011.00 1011.51 1011.70 1012.82 1012.68 1013.21 1013.24 1013.53 1014.15 1014.30 1014.75 1015.17 1015.47 1016.10 1015.78 1014.37 1014.79 1014.72 1014.79 1015.45 1015.59 1016.24 1016.35 1014.86 1013.90 1011.07 1009.73 1009.04 1008.20 1007.69 1007.32 1006.28 1005.57 1005.08
1001.75 1004.29 1005.33 1005.83 1006.40 1006.30 1007.32 1008.53 1009.28 1009.81 1010.63 1011.26 1012.05 1012.10 1012.74 1013.15 1013.78 1014.10 1014.44 1014.78 1014.79 1015.19 1015.36 1015.52 1016.06 1016.22 1015.62 1014.50 1014.74 1014.89 1014.82 1015.22 1016.06 1015.78 1014.26 1012.51 1010.92 1009.83 1008.62 1008.12 1007.14 1006.77 1005.90 1005.63 1004.77
1001.87 1003.27 1003.98 1005.23 1006.19 1006.34 1006.76 1008.02 1008.91 1010.19 1010.74 1011.00 1012.51 1012.26 1012.40 1013.63 1014.37 1014.64 1014.74 1014.92 1014.98 1015.28 1015.36 1015.96 1016.36 1016.40 1015.91 1015.30 1014.92 1015.05 1014.63 1014.24 1014.73 1014.34 1014.46 1011.96 1011.04 1009.57 1008.86 1008.14 1007.26 1006.87 1005.99 1005.40 1004.99
1002.27 1003.03 1003.93 1004.69 1005.55 1006.11 1006.83 1008.05 1008.65 1010.06 1010.33 1011.35 1012.18 1012.74 1012.67 1013.27 1013.63 1014.62 1014.85 1015.00 1014.86 1015.39 1015.50 1016.27 1016.69 1016.77 1015.82 1015.81 1015.41 1015.07 1014.42 1013.54 1013.24 1013.05 1012.61 1011.78 1010.52 1009.75 1008.98 1008.51 1007.59 1007.04 1006.46 1005.39 1004.86
1002.69 1002.55 1002.82 1005.02 1005.73 1006.33 1007.20 1007.94 1008.64 1009.45 1010.84 1011.13 1012.19 1013.08 1013.30 1013.25 1013.73 1014.45 1015.10 1015.23 1015.37 1015.41 1015.67 1016.52 1017.02 1017.34 1016.25 1015.94 1015.80 1014.82 1013.41 1012.84 1012.37 1012.19 1012.21 1011.27 1010.20 1010.32 1009.51 1008.79 1007.84 1007.06 1006.24 1005.65 1004.60
Thickness
5673 5674 5674 5677 5679 5680 5682 5684 5686 5689 5692 5695 5699 5703 5710 5714 5721 5726 5729 5740 5742 5743 5744 5744 5745 5741 5741 5732 5729 5724 5707 5704 5714 5713 5733 5743 5742 5751 5751 5742 5746 5748 5743 5745 5745
5669 5669 5669 5670 5673 5676 5675 5677 5680 5683 5686 5688 5692 5696 5703 5709 5712 5718 5732 5734 5735 5738 5733 5728 5727 5729 5726 5724 5719 5715 5700 5711 5720 5725 5727 5730 5727 5731 5733 5737 5743 5737 5734 5735 5736
5664 5666 5664 5664 5666 5667 5669 5672 5673 5675 5678 5681 5684 5690 5695 5702 5707 5717 5725 5726 5727 5728 5725 5722 5720 5717 5713 5714 5713 5705 5706 5712 5716 5720 5720 5714 5715 5725 5726 5733 5745 5731 5734 5727 5726
5659 5660 5659 5659 5659 5660 5661 5663 5667 5669 5671 5673 5676 5681 5686 5691 5684 5712 5715 5716 5716 5717 5716 5712 5709 5701 5699 5699 5705 5695 5705 5704 5711 5714 5710 5705 5713 5716 5716 5740 5745 5740 5737 5728 5726
5652 5654 5654 5652 5653 5654 5655 5657 5659 5660 5662 5663 5666 5670 5674 5674 5690 5704 5705 5708 5709 5709 5703 5701 5695 5690 5688 5689 5690 5689 5699 5699 5699 5701 5703 5703 5706 5707 5728 5743 5749 5742 5737 5736 5733
5645 5645 5646 5647 5646 5646 5647 5646 5648 5650 5652 5653 5654 5656 5659 5661 5695 5693 5695 5695 5699 5697 5693 5693 5687 5686 5679 5678 5680 5687 5685 5688 5693 5696 5694 5697 5709 5710 5736 5742 5741 5737 5738 5738 5737
5640 5639 5639 5640 5638 5637 5636 5638 5636 5639 5639 5640 5641 5642 5643 5665 5683 5682 5683 5683 5683 5684 5681 5685 5683 5677 5673 5671 5677 5677 5674 5680 5688 5693 5690 5697 5703 5714 5737 5738 5735 5732 5734 5736 5737
5633 5633 5631 5632 5631 5628 5626 5626 5627 5627 5629 5630 5627 5626 5633 5664 5667 5672 5674 5671 5675 5673 5674 5674 5673 5666 5664 5665 5666 5661 5666 5662 5679 5680 5690 5692 5718 5724 5733 5725 5727 5729 5728 5730 5734
5626 5626 5625 5625 5621 5620 5617 5614 5613 5617 5620 5614 5616 5617 5627 5650 5654 5663 5661 5662 5665 5666 5665 5667 5660 5656 5655 5650 5647 5646 5651 5645 5655 5673 5679 5682 5713 5713 5721 5721 5722 5726 5728 5730 5728
5618 5618 5617 5616 5612 5608 5607 5602 5604 5602 5605 5606 5608 5608 5626 5642 5654 5656 5655 5656 5657 5655 5652 5652 5648 5642 5640 5641 5643 5649 5638 5640 5641 5660 5664 5671 5704 5708 5713 5713 5715 5720 5722 5724 5726
5611 5609 5608 5608 5604 5601 5597 5588 5590 5591 5598 5620 5618 5622 5631 5639 5646 5647 5649 5649 5649 5648 5645 5641 5637 5637 5641 5644 5654 5646 5638 5634 5638 5649 5650 5663 5690 5710 5705 5706 5712 5714 5719 5723 5724
5608 5604 5603 5600 5598 5594 5592 5596 5602 5606 5602 5606 5610 5612 5620 5627 5627 5634 5641 5638 5638 5636 5636 5632 5634 5640 5638 5633 5630 5630 5627 5626 5636 5638 5634 5649 5686 5714 5701 5707 5714 5717 5716 5718 5722
5604 5601 5600 5593 5587 5582 5590 5592 5595 5596 5592 5604 5608 5611 5614 5614 5617 5628 5630 5629 5629 5627 5632 5635 5639 5635 5629 5625 5619 5619 5613 5616 5616 5624 5630 5634 5671 5706 5710 5716 5709 5707 5710 5708 5708
5601 5597 5592 5585 5571 5580 5582 5586 5586 5585 5575 5596 5602 5607 5605 5608 5611 5619 5624 5622 5614 5623 5619 5622 5629 5628 5621 5616 5616 5613 5620 5617 5612 5603 5608 5621 5622 5689 5701 5718 5696 5698 5696 5692 5701
5599 5593 5583 5591 5586 5584 5592 5579 5572 5573 5550 5594 5590 5599 5602 5601 5610 5609 5612 5611 5608 5609 5612 5615 5614 5611 5608 5613 5612 5606 5609 5605 5603 5593 5591 5641 5578 5660 5705 5697 5690 5674 5679 5671 5669
5595 5589 5577 5567 5573 5581 5579 5567 5562 5533 5542 5580 5585 5585 5585 5592 5598 5596 5598 5601 5600 5597 5599 5601 5600 5599 5604 5605 5603 5595 5589 5587 5587 5579 5573 5626 5580 5616 5660 5665 5662 5655 5640 5641 5648
5589 5580 5564 5565 5569 5568 5568 5553 5510 5523 5569 5575 5579 5580 5579 5577 5580 5584 5581 5577 5580 5577 5582 5586 5587 5590 5590 5583 5582 5576 5565 5561 5567 5561 5574 5611 5587 5606 5633 5639 5604 5606 5613 5619 5624
5578 5561 5546 5549 5554 5553 5555 5531 5511 5538 5564 5571 5570 5567 5569 5566 5561 5564 5566 5557 5557 5564 5568 5571 5570 5572 5566 5565 5563 5560 5558 5549 5540 5560 5572 5585 5570 5608 5590 5586 5584 5579 5588 5600 5605
5558 5538 5533 5527 5531 5538 5536 5511 5527 5535 5562 5561 5556 5556 5548 5550 5556 5550 5544 5542 5538 5540 5552 5542 5551 5552 5548 5548 5551 5545 5541 5532 5520 5535 5528 5560 5576 5586 5566 5557 5560 5565 5562 5570 5579
5541 5525 5513 5514 5517 5517 5506 5510 5509 5532 5543 5544 5543 5537 5538 5536 5540 5539 5534 5526 5515 5514 5522 5508 5522 5531 5530 5535 5529 5528 5522 5519 5516 5519 5526 5532 5527 5538 5542 5532 5534 5533 5539 5543 5544
5517 5494 5495 5500 5495 5485 5496 5492 5494 5512 5518 5514 5501 5504 5513 5513 5523 5518 5517 5502 5503 5494 5502 5503 5504 5523 5521 5515 5515 5512 5510 5490 5479 5473 5479 5478 5501 5519 5499 5506 5512 5517 5524 5527 5526
5491 5485 5479 5483 5470 5461 5479 5483 5492 5484 5494 5491 5489 5489 5489 5497 5497 5499 5502 5503 5490 5486 5486 5479 5476 5481 5504 5494 5496 5495 5470 5458 5449 5448 5439 5434 5461 5495 5495 5500 5499 5503 5514 5513 5512
5465 5460 5459 5464 5458 5458 5459 5465 5475 5476 5479 5471 5470 5479 5478 5478 5471 5482 5485 5475 5473 5473 5464 5463 5454 5461 5494 5474 5463 5459 5452 5446 5425 5420 5431 5431 5458 5499 5495 5493 5496 5493 5503 5509 5507
5458 5449 5435 5440 5444 5462 5461 5454 5455 5462 5460 5462 5456 5462 5460 5459 5460 5453 5460 5456 5456 5456 5456 5453 5445 5449 5454 5469 5451 5448 5456 5444 5416 5416 5431 5440 5449 5473 5484 5480 5489 5492 5495 5495 5499
5442 5441 5448 5446 5438 5455 5457 5453 5448 5443 5447 5454 5442 5455 5454 5437 5439 5439 5447 5444 5444 5446 5446 5434 5426 5430 5437 5438 5436 5431 5436 5440 5427 5428 5405 5436 5442 5464 5466 5471 5477 5477 5485 5487 5491
5436 5438 5435 5444 5444 5448 5449 5442 5450 5437 5440 5433 5435 5435 5435 5434 5442 5433 5434 5435 5438 5428 5423 5411 5410 5405 5396 5417 5409 5409 5422 5429 5431 5430 5427 5429 5435 5459 5456 5454 5460 5461 5464 5476 5481
5420 5431 5439 5429 5430 5433 5426 5431 5435 5435 5421 5429 5422 5419 5416 5422 5423 5425 5422 5414 5419 5418 5412 5397 5386 5378 5400 5403 5393 5393 5423 5428 5428 5432 5425 5420 5439 5427 5430 5433 5441 5443 5448 5458 5470